Probability
0 0 0 0 0 0 0 0 0 0 0 0 0 0 0 0 0 0 0 0 0 0 0 0 0 0 0 0 0 0 0 0 0 0 0 0 0 0 0 0 0 0 0
0 0 0 0 0 0 0 0 0 0 0 0 0 0 0 0 0 0 0 0 0 0 0 0 0 0 0 0 0 0 0 0 0 0 0 0 0 0 0 0 0 0 0
0 0 0 0 0 0 0 0 0 0 0 0 0 0 0 0 0 0 0 0 0 0 0 0 0 0 0 0 0 0 0 0 0 0 0 0 0 0 0 0 0 0 0
0 0 0 0 0 0 0 0 0 0 0 0 0 0 0 0 0 0 0 0 0 0 0 0 0 0 0 0 0 0 0 0 0 0 0 0 0 0 0 0 0 0 0
0 0 0 0 0 0 0 0 0 0 0 0 0 0 0 0 0 0 0 0 0 0 0 0 0 0 0 0 0 0 0 0 0 0 0 0 0 0 0 0 0 0 0
0 0 0 0 0 0 0 0 0 0 0 0 0 0 0 0 0 0 0 0 0 0 0 0 0 0 0 0 0 0 0 0 0 0 0 0 0 0 0 0 0 0 0
0 0 0 0 0 0 0 0 0 0 0 0 0 0 0 0 0 0 0 0 0 0 0 0 0 0 0 0 0 0 0 0 0 0 0 0 0 0 0 0 0 0 0
0 0 0 0 0 0 0 0 0 0 0 0 0 0 0 0 0 0 0 0 0 0 0 0 0 0 0 0 0 0 0 0 0 0 0 0 0 0 0 0 0 0 0
0 0 0 0 0 0 0 0 0 0 0 0 0 0 0 0 0 0 0 0 0 0 0 0 0 0 0 0 0 0 0 0 0 0 0 0 0 0 0 0 0 0 0
0 0 0 0 0 0 0 0 0 0 0 0 0 0 0 0 0 0 0 0 0 0 0 0 0 0 0 0 0 0 0 0 0 0 0 0 0 0 0 0 0 0 0
0 0 0 0 0 0 0 0 0 0 0 0 0 0 0 0 0 0 0 0 0 0 0 0 0 0 0 0 0 0 0 0 0 0 0 0 0 0 0 0 0 0 0
0 0 0 0 0 0 0 0 0 0 0 0 0 0 0 0 0 0 0 0 0 0 0 0 0 0 0 0 0 0 0 0 0 0 0 0 0 0 0 0 0 0 0
0 0 0 0 0 0 0 0 0 0 0 0 0 0 0 0 0 0 0 0 0 0 0 0 0 0 0 0 0 0 0 0 0 0 0 0 0 0 0 0 0 0 0
0 0 0 0 0 0 0 0 0 0 0 0 0 0 0 0 0 0 0 0 0 0 0 0 0 0 0 0 0 0 0 0 0 0 0 0 0 0 0 0 0 0 0
0 0 0 0 0 0 0 0 0 0 0 0 0 0 0 0 0 0 0 0 0 0 0 0 0 0 0 0 0 0 0 0 0 0 0 0 0 0 0 0 0 0 0
0 0 0 0 0 0 0 0 0 0 0 0 0 0 0 0 0 0 0 0 0 0 0 0 0 0 0 0 0 0 0 0 0 0 0 0 0 0 0 0 0 0 0
0 0 0 0 0 0 0 0 0 0 0 0 0 0 0 0 0 0 0 0 0 0 0 0 0 0 0 0 0 0 0 0 0 0 0 0 0 0 0 0 0 0 0
0 0 0 0 0 0 0 0 0 0 0 0 0 0 0 0 0 0 0 0 0 0 0 0 0 0 0 0 0 0 0 0 0 0 0 0 0 0 0 0 0 0 0
0 0 0 0 0 0 0 0 0 0 0 0 0 0 0 0 0 0 0 0 0 0 0 0 0 0 0 0 0 0 0 0 0 0 0 0 0 0 0 0 0 0 0
0 0 0 0 0 0 0 0 0 0 0 0 0 0 0 0 0 0 0 0 0 0 0 0 0 0 0 0 0 0 0 0 0 0 0 0 0 0 0 0 0 0 0
0 0 0 0 0 0 0 0 0 0 0 0 0 0 0 0 0 0 0 0 0 0 0 0 0 0 0 0 0 0 0 0 0 0 0 0 0 0 0 0 0 0 0
0 0 0 0 0 0 0 0 0 0 0 0 0 0 0 0 0 0 0 0 0 0 0 0 0 0 0 0 0 0 0 0 0 0 0 0 0 0 0 0 0 0 0
0 0 0 0 0 0 0 0 0 0 0 0 0 0 0 0 0 0 0 0 0 0 0 0 0 0 0 0 0 0 0 0 0 0 0 0 0 0 0 0 0 0 0
0 0 0 0 0 0 0 0 0 0 0 0 0 0 0 0 0 0 0 0 0 0 0 0 0 0 0 0 0 0 0 0 0 0 0 0 0 0 0 0 0 0 0
0 0 0 0 0 0 0 0 0 0 0 0 0 0 0 0 0 0 0 0 0 0 0 0 0 0 0 0 0 0 0 0 0 0 0 0 0 0 0 0 0 0 0
0 0 0 0 0 0 0 0 0 0 0 0 0 0 0 0 0 0 0 0 0 0 0 0 0 0 0 0 0 0 0 0 0 0 0 0 0 0 0 0 0 0 0
Wind_Speed
9 10 11 11 11 11 10 8 6 5 4 3 3 3 4 5 6 7 9 11 11 11 11 9 11 10 9 11 13 12 12 11 9 9 11 13 16 17 14 14 14 15 16
10 10 11 12 13 12 11 9 7 5 4 2 2 1 2 3 4 5 7 9 10 11 9 11 10 10 9 12 13 12 10 9 8 7 8 9 9 11 11 12 12 14 13
10 11 11 12 12 11 10 8 8 6 4 3 2 1 2 3 3 4 5 7 8 10 11 12 11 11 10 10 12 12 13 11 10 9 8 8 8 7 6 10 10 11 11
9 10 10 11 11 9 8 8 8 7 5 3 1 1 2 3 3 3 4 5 6 8 9 10 11 11 10 12 12 12 11 12 11 10 10 12 10 9 9 7 9 11 12
8 9 9 9 9 8 7 7 8 7 5 3 1 1 3 3 4 4 5 5 5 6 7 9 9 10 10 12 13 12 13 11 12 11 10 12 12 14 12 14 13 12 12
8 8 8 8 8 7 6 6 7 7 5 4 2 2 3 5 5 6 5 5 4 4 6 6 8 9 9 11 12 12 14 13 14 12 11 12 11 11 12 15 15 15 13
10 9 9 8 7 6 6 5 6 6 5 4 3 3 3 5 5 6 6 6 5 5 6 6 7 8 9 10 11 12 13 14 16 15 13 13 13 13 13 15 16 17 14
10 9 8 7 6 5 4 4 5 4 4 3 3 3 3 3 4 5 6 6 6 6 8 8 8 10 10 10 11 10 13 13 14 16 16 13 13 13 13 14 14 17 16
10 9 7 6 5 4 4 3 3 3 3 4 4 4 4 4 5 6 6 5 6 7 9 9 10 11 11 12 12 11 13 13 14 15 16 14 13 13 13 13 13 14 17
10 9 7 6 4 3 3 2 2 2 3 3 4 3 5 5 6 6 7 8 9 9 10 11 12 12 12 13 13 12 13 15 15 13 15 16 13 13 13 13 13 14 15
9 8 6 5 4 3 2 1 2 2 3 4 4 5 5 6 7 7 8 9 10 11 11 12 13 14 14 14 14 14 15 16 16 16 16 17 17 14 13 13 13 14 14
7 6 6 5 4 2 1 1 2 3 4 4 5 6 6 7 8 9 10 10 11 12 12 13 14 14 15 15 16 16 16 17 17 17 18 18 15 18 15 13 15 14 15
6 6 5 4 2 1 1 2 3 3 4 5 6 7 8 9 10 11 11 12 12 13 14 14 15 15 15 16 16 17 17 17 18 17 17 18 18 18 15 16 15 13 13
6 6 4 3 2 1 1 2 3 4 5 6 7 8 9 10 11 12 12 13 13 14 15 15 15 15 15 15 16 15 16 17 17 17 17 18 18 18 18 15 16 14 14
6 5 3 2 1 1 2 3 4 5 5 7 8 9 10 11 11 12 13 14 14 15 15 16 16 16 13 11 12 12 15 16 17 18 18 18 21 23 20 15 13 13 12
6 4 2 1 0 2 3 4 5 6 7 8 9 10 10 11 12 13 14 14 15 15 15 16 17 17 13 18 24 21 18 16 16 16 16 17 19 22 26 28 27 22 15
5 3 1 1 1 3 4 6 6 7 8 9 10 10 11 12 13 14 15 15 16 16 16 16 17 18 18 22 24 25 20 18 17 16 16 14 14 19 14 19 25 24 27
4 2 1 1 2 3 5 6 7 8 9 10 11 11 11 13 14 15 15 16 15 15 15 16 17 18 18 23 24 25 20 17 16 16 16 17 16 15 15 13 13 15 16
2 1 1 2 3 5 6 7 8 9 10 11 12 12 12 13 14 15 16 16 15 16 16 16 17 18 19 22 23 24 15 14 16 16 16 17 16 21 24 17 14 15 13
2 1 2 3 5 5 6 8 10 11 11 12 13 13 14 14 15 16 17 15 15 16 16 16 16 18 18 21 23 24 12 14 14 13 14 19 21 23 24 17 14 15 13
1 2 3 5 5 6 7 9 11 12 12 12 13 14 14 15 16 16 15 15 15 16 16 17 16 16 18 20 22 23 13 13 13 12 11 11 20 23 25 22 15 17 16
2 3 5 6 6 7 8 11 12 13 12 13 14 15 15 14 13 15 15 15 15 16 16 15 15 13 14 16 19 23 23 21 15 13 12 13 22 25 26 20 19 22 19
3 4 6 8 8 8 9 12 13 13 13 14 15 15 15 14 14 15 15 14 13 12 12 13 13 13 12 14 21 23 24 25 17 13 20 23 26 24 18 18 20 17 9
4 5 7 9 10 10 11 12 13 13 13 15 15 14 14 14 14 12 11 12 12 12 12 13 14 14 13 12 12 12 14 17 15 13 16 22 22 17 16 15 12 8 7
5 6 8 10 12 12 13 13 13 13 14 15 14 14 13 14 13 12 11 13 13 14 15 14 13 14 15 16 24 20 15 13 14 15 11 9 9 8 8 8 7 6 6
7 8 10 11 13 13 14 14 13 13 14 13 13 12 11 11 12 13 13 14 17 22 24 24 23 18 21 27 28 28 27 27 24 17 10 10 9 9 8 8 7 6 6
Wind_Direction
75 66 66 70 74 74 78 87 104 126 150 164 188 211 230 237 240 243 248 247 247 245 244 249 255 252 248 250 254 256 259 259 262 271 273 264 255 250 248 247 248 247 244
93 79 75 72 71 72 74 79 88 106 132 151 174 226 260 263 265 256 253 252 250 248 246 248 252 252 250 253 255 255 255 258 249 252 279 283 273 246 237 243 244 247 246
104 94 84 78 74 69 67 73 78 90 105 134 160 181 232 250 248 255 259 260 257 254 250 251 254 255 253 254 255 253 248 252 251 233 244 268 276 302 248 234 241 244 245
113 104 96 86 78 74 74 77 80 82 88 117 167 231 275 293 307 307 293 286 273 265 259 257 257 258 255 254 255 253 251 250 254 250 234 244 266 279 286 253 241 246 251
127 115 104 97 89 84 82 83 84 80 79 84 77 291 298 308 313 311 302 301 290 276 269 265 263 261 259 258 259 258 253 247 248 250 249 246 248 249 258 273 272 262 250
144 130 121 114 103 96 90 87 87 80 74 71 58 351 328 321 318 320 318 315 307 294 283 275 268 265 263 262 261 259 256 252 250 249 248 249 247 246 250 263 269 270 266
161 151 144 132 117 104 93 89 83 75 63 54 35 8 337 322 318 321 319 315 311 307 306 292 279 273 268 267 265 262 259 255 253 251 250 248 248 252 256 265 272 274 273
170 162 154 142 128 114 98 85 73 62 46 30 15 2 346 326 323 320 313 309 306 307 308 299 288 283 279 273 268 265 261 259 257 255 254 253 252 251 250 255 267 275 274
175 170 162 153 139 124 102 77 62 50 33 12 353 344 341 329 321 314 308 303 301 302 299 296 291 287 284 279 276 268 267 265 262 261 259 257 255 254 254 253 253 261 274
177 174 168 160 147 130 109 77 48 28 9 351 346 328 324 321 313 307 307 305 304 302 298 296 294 291 287 284 279 275 273 272 268 265 263 261 259 257 254 252 252 250 258
176 175 169 162 152 139 119 68 31 8 351 340 328 318 319 316 309 305 305 305 303 302 299 297 295 293 291 289 284 279 278 276 274 270 266 264 263 263 260 256 253 250 249
169 168 166 161 155 135 86 33 7 351 340 327 316 314 313 310 307 306 307 305 303 301 299 297 293 292 290 289 287 286 283 280 277 275 273 270 268 264 262 259 256 254 250
160 160 159 156 142 111 30 1 349 339 329 320 312 310 310 310 308 309 308 305 302 300 298 296 293 292 290 289 287 286 285 283 281 279 277 275 273 269 264 261 259 257 256
156 155 152 142 120 47 353 339 334 328 322 313 308 307 310 310 309 307 305 302 301 299 298 296 293 291 287 284 283 283 283 282 280 278 275 273 270 268 267 265 263 261 260
154 150 145 128 98 358 330 328 321 317 313 307 305 307 309 307 304 303 302 301 299 297 295 294 292 290 286 278 276 274 274 273 274 273 271 269 267 265 265 262 259 255 255
157 148 143 148 301 321 319 314 310 311 307 303 304 307 305 304 303 302 302 301 299 298 296 294 293 291 286 287 289 288 285 281 278 277 275 273 271 270 269 269 267 261 256
158 160 175 215 301 316 311 308 309 307 303 302 302 303 303 302 302 302 301 300 300 299 297 295 293 291 291 292 292 291 290 287 285 284 283 280 276 276 269 270 273 274 272
162 172 198 261 293 298 299 301 301 300 300 300 301 302 303 301 301 302 301 301 301 299 298 296 296 295 293 295 296 297 294 288 285 283 282 281 279 275 273 266 263 263 265
155 171 250 281 286 291 298 298 296 298 298 300 303 305 303 301 301 301 301 302 301 299 298 298 297 296 296 297 299 298 294 287 286 284 281 280 280 279 281 277 270 269 266
162 221 266 275 281 292 298 295 296 298 300 304 304 304 302 300 299 300 301 301 299 298 299 296 296 295 295 297 299 299 293 291 289 286 282 281 280 281 282 277 272 271 270
202 257 274 278 286 295 296 293 297 298 303 304 301 299 298 298 299 299 298 299 299 298 297 297 296 295 295 297 297 298 295 291 291 289 286 282 284 285 285 283 276 272 273
239 266 278 285 292 294 294 293 296 301 303 301 299 298 299 299 297 297 298 299 299 299 299 299 300 298 298 297 298 299 298 299 296 293 290 287 288 288 288 286 280 282 283
258 271 282 290 294 294 291 291 298 304 304 301 299 299 300 298 297 297 298 300 299 297 299 299 299 300 300 300 301 302 302 301 297 289 289 292 293 294 291 285 285 286 280
269 278 284 289 295 300 299 295 299 301 299 298 299 300 299 299 299 296 294 294 296 296 296 297 298 300 301 301 302 301 303 301 297 293 291 293 292 286 283 284 284 277 270
275 278 280 287 293 299 299 300 301 302 299 298 298 298 297 298 298 296 294 293 288 288 293 294 296 299 300 300 304 305 303 300 296 300 293 289 289 285 283 280 276 272 269
280 281 283 288 293 297 298 299 301 300 297 297 298 298 299 298 297 298 297 286 283 290 291 291 293 294 295 301 304 306 305 306 304 304 297 296 295 293 291 289 284 275 267